Hourly Data Report for November 24, 2016

All times are specified in Local Standard Time (LST). Add 1 hour to adjust for Daylight Saving Time where and when it is observed.

TORONTO INTL A
ONTARIO

43°40'36.000" N
79°37'50.000" W
173.40 m
6158731
71624
YYZ

Download Data

Hourly Data (November 2016)
Hourly Data Report for November 24, 2016
TIME Temp Definition
°C
Dew Point Definition
°C
Rel Hum Definition
%
Wind Dir Definition
10's deg

Wind Spd Definition
km/h
Visibility Definition
km
Stn Press Definition
kPa
Hmdx Definition


Wind Chill Definition


Weather Definition


00:00 1.2 0.1 92 11 20 19.3 100.06     Ice Pellets
01:00 1.2 0.2 93 8 9 19.3 100.01     Cloudy
02:00 1.8 0.8 93 11 10 19.3 99.97     Rain
03:00 2.0 0.8 92 10 12 24.1 99.89     LegendNANA
04:00 2.4 1.2 92 7 16 24.1 99.78     Cloudy
05:00 2.8 1.5 91 8 11 24.1 99.77     LegendNANA
06:00 3.2 1.9 91 8 18 16.1 99.70     Rain
07:00 3.0 2.0 93 8 20 9.7 99.65     Rain,Fog
08:00 3.0 2.0 93 14 9 8.1 99.73     Rain,Fog
09:00 3.2 2.3 94 8 10 8.1 99.74     Drizzle,Fog
10:00 3.3 2.6 95 9 10 3.2 99.77     Drizzle,Fog
11:00 3.5 2.6 94 8 13 8.1 99.74     Rain,Fog
12:00 3.7 2.7 93 8 14 9.7 99.70     Rain,Fog
13:00 3.4 2.5 94 5 12 8.1 99.72     Drizzle,Fog
14:00 3.3 2.4 94 3 11 3.2 99.74     Drizzle,Fog
15:00 3.1 2.2 94 6 10 4.0 99.81     Drizzle,Fog
16:00 3.2 2.2 93 1 7 9.7 99.86     Fog
17:00 3.3 2.0 91 34 3 8.1 99.95     Fog
18:00 3.2 2.0 92 34 9 8.1 100.01     Drizzle,Fog
19:00 3.1 2.1 93 32 8 9.7 100.05     Drizzle,Fog
20:00 3.0 2.0 93 4 5 12.9 100.03     Drizzle
21:00 3.2 2.3 94 36 2 12.9 100.07     Drizzle
22:00 3.4 2.5 94 13 4 4.8 100.07     Fog
23:00 3.5 2.8 95 16 5 0.8 100.10     Drizzle,Fog

Notes on Data Quality.

Legend

  • E = Estimated
  • M = Missing
  • NA = Not Available
Date modified: